{"data":{"norad_id":59207,"intl_designator":"2024-046G","name":"STARLINK-31591","alt_names":[],"object_type":"PAYLOAD","status":"ACTIVE","operator":null,"country":"US","launch_date":"2024-03-11","launch_site_code":"AFWTR","launch_vehicle":null,"mission":null,"orbit_class":"UNKNOWN","rcs_meters":null,"size_class":null,"mass_kg":null,"dimensions":null,"purposes":["comms"],"wikipedia_slug":null,"has_3d_model":false,"image_url":null,"decayed_at":null,"tle_current":{"epoch":"2026-09-20T15:48:39.792960Z","epoch_age_seconds":145107,"freshness":"FRESH","line1":"1 59207U 24046G   26263.65879390  .00002498  00000+0  85060-4 0  9990","line2":"2 59207  53.1617 325.2314 0002221 103.3693 256.7557 15.34403105142965","mean_motion":15.34403105,"eccentricity":0.0002221,"inclination_deg":53.1617,"raan_deg":325.2314,"arg_perigee_deg":103.3693,"mean_anomaly_deg":256.7557,"bstar":8.506e-5,"rev_number":14296,"period_min":93.84756817212,"perigee_km":461.17466294066,"apogee_km":464.21336007598,"semimajor_km":6840.8310115083,"source":"CELESTRAK","updated_at":"2026-09-21T09:00:34.069095Z"}}}